STARLINK-32743 (62480 NORAD) Tracking and Keplerian Element Data

This shows tracking and keplerian element data for the satellite.

Feedback or suggestion? Click here.




ElementValue
Catalog62480
NameSTARLINK-32743
Epoch Orbit602
Epoch Day34.83335648
Epoch Year2025
RAAN112.4337
Inclination42.9996
Eccentricity0.0001525
Argument of Perigee259.6378
Mean Anonmoly49.376
Mean Motion15.40702698
Decay Rate0.00038173
L11 62480U 24254U 25034.83335648 .00038173 00000+0 91643-3 0 9998
L22 62480 42.9996 112.4337 0001525 259.6378 49.3760 15.40702698 6024



Live tracking and technical data element details for STARLINK-32743 (NORAD 62480). STARLINK-32743 can be tracked NOW for your location showing map with azimuth and elevation plus other details from your city location.







IsCatalogInMostPopularTable: catalog: 62480, numindb: 13
Update: records affected: 1



GetName: 62480 STARLINK-32743

Hit Count: updated at: Mon, 19 May 2025 01:26:42 GMT